Location: Newark
(49.8969°N, 3.3422°E)
Time: 12:05:41
(UTC+00:00)

Explorer 7 - Pass Details

Date: 01 February 2020
Orbit: 485 x 679 km, 50.3° (Epoch: 20 February)

Event Time Altitude Azimuth Distance (km) Brightness Sun altitude
Rises 19:48:52 0° 224° (SW) 2,641 10.7 -30.4°
Enters shadow 19:50:38 - 218° (SW) 1,952 9.9 -30.7°
Reaches altitude 10° 19:51:14 10° 214° (SW) 1,728 - -30.8°
Maximum altitude 19:54:45 33° 150° (SSE) 855 - -31.3°
Drops below altitude 10° 19:58:11 10° 85° (E) 1,680 - -31.9°
Sets 20:00:28 0° 75° (ENE) 2,555 - -32.2°
